GW2741 Weather Reports


time (UTC)temp
C
wind
direction
speed
KPH
gust
KPH
rain 1hr
cm
rain 24hr
cm
rain mn
cm
humidity
%
barometer
mb
20260831220933 13 172 8.0 14.5 0.00 0.15 0.15 77 1012.1
20260831220033 13 159 6.4 12.9 0.00 0.15 0.15 77 1012.0
20260831215133 13 140 4.8 9.7 0.03 0.15 0.15 76 1012.0
20260831214233 13 133 6.4 12.9 0.03 0.15 0.15 76 1012.2
20260831212433 13 182 6.4 12.9 0.03 0.15 0.15 74 1012.3
20260831211533 13 151 4.8 11.3 0.03 0.15 0.15 73 1012.1
20260831210633 13 170 6.4 12.9 0.03 0.15 0.15 72 1012.2
20260831204833 13 149 4.8 9.7 0.00 0.13 0.13 71 1012.2
20260831203933 14 173 4.8 12.9 0.00 0.13 0.13 70 1011.9
20260831203033 14 163 4.8 9.7 0.00 0.13 0.13 69 1012.3
20260831202133 14 169 4.8 8.0 0.00 0.13 0.13 68 1012.1
20260831201233 14 151 4.8 12.9 0.00 0.13 0.13 66 1012.3
20260831200333 14 161 3.2 12.9 0.00 0.13 0.13 65 1012.0
20260831195433 14 158 4.8 9.7 0.00 0.13 0.13 64 1012.2
20260831194533 14 129 6.4 14.5 0.00 0.13 0.13 63 1012.1
20260831193633 14 149 6.4 14.5 0.00 0.13 0.13 63 1012.1
20260831192733 14 144 3.2 6.4 0.00 0.13 0.13 62 1011.9
20260831190033 15 167 1.6 3.2 0.00 0.13 0.13 61 1012.0
20260831185133 15 174 1.6 4.8 0.00 0.13 0.13 61 1011.9
20260831183333 15 153 3.2 8.0 0.00 0.13 0.13 61 1011.7
20260831181533 15 279 3.2 8.0 0.00 0.13 0.13 60 1011.6
20260831180633 16 270 3.2 6.4 0.00 0.13 0.13 60 1011.4
20260831175733 16 259 4.8 9.7 0.00 0.13 0.13 60 1011.5
20260831174833 16 287 4.8 11.3 0.00 0.13 0.13 59 1011.8
20260831171233 16 306 6.4 12.9 0.00 0.15 0.13 58 1011.5
20260831170333 16 308 6.4 9.7 0.00 0.15 0.13 59 1011.8
20260831165433 16 322 6.4 9.7 0.00 0.15 0.13 59 1011.6
20260831164533 15 298 6.4 14.5 0.00 0.15 0.13 58 1011.7
20260831163633 15 309 8.0 12.9 0.00 0.15 0.13 57 1011.7
20260831162733 15 293 8.0 14.5 0.00 0.15 0.13 56 1011.7
20260831161833 15 288 8.0 12.9 0.00 0.15 0.13 57 1011.6
20260831160933 16 314 8.0 14.5 0.00 0.15 0.13 58 1011.5
20260831160033 15 325 9.7 14.5 0.00 0.15 0.13 59 1011.5
20260831154233 15 355 11.3 24.1 0.00 0.20 0.13 59 1011.2
20260831153335 15 321 12.9 24.1 0.00 0.20 0.13 59 1011.4
20260831152433 15 302 11.3 19.3 0.00 0.20 0.13 59 1011.4
20260831150633 15 312 11.3 20.9 0.00 0.20 0.13 58 1011.1
20260831144833 16 319 12.9 24.1 0.00 0.20 0.13 54 1011.2
20260831143934 16 301 12.9 24.1 0.00 0.20 0.13 54 1010.7
20260831143033 16 325 12.9 24.1 0.00 0.20 0.13 53 1010.8
20260831142133 16 325 11.3 24.1 0.00 0.20 0.13 54 1010.7
20260831141235 16 329 11.3 24.1 0.00 0.20 0.13 54 1010.7
20260831140333 16 346 9.7 17.7 0.00 0.20 0.13 53 1010.5
20260831134533 16 305 9.7 20.9 0.00 0.20 0.13 54 1010.4
20260831133633 16 318 11.3 20.9 0.00 0.20 0.13 53 1010.5
20260831132733 17 349 9.7 17.7 0.00 0.20 0.13 53 1010.2
20260831131833 17 340 9.7 17.7 0.00 0.20 0.13 54 1010.0
20260831130933 17 319 12.9 24.1 0.00 0.20 0.13 52 1010.1
20260831130033 17 320 11.3 20.9 0.00 0.20 0.13 58 1009.9
20260831125135 17 343 11.3 20.9 0.00 0.20 0.13 59 1009.8
20260831121533 16 314 11.3 22.5 0.00 0.20 0.13 57 1009.6
20260831120633 16 311 12.9 24.1 0.00 0.20 0.13 55 1009.4
20260831115734 17 337 12.9 29.0 0.00 0.20 0.13 56 1009.2
20260831114833 16 354 14.5 22.5 0.00 0.20 0.13 56 1009.0
20260831113933 16 323 12.9 35.4 0.00 0.20 0.13 56 1009.1
20260831113033 17 313 12.9 35.4 0.00 0.20 0.13 57 1008.8
20260831112133 17 337 14.5 29.0 0.00 0.20 0.13 59 1008.9
20260831111233 17 334 12.9 24.1 0.00 0.20 0.13 61 1008.6
20260831110335 16 340 12.9 24.1 0.00 0.20 0.13 65 1008.7
20260831105434 16 346 12.9 24.1 0.00 0.20 0.13 68 1008.5
20260831103634 15 344 8.0 16.1 0.00 0.20 0.13 70 1008.3
20260831102733 14 330 12.9 30.6 0.00 0.20 0.13 68 1008.4
20260831101834 14 338 14.5 37.0 0.00 0.20 0.13 68 1008.1
20260831100934 15 336 11.3 19.3 0.00 0.20 0.13 69 1008.0
20260831095134 14 324 12.9 22.5 0.00 0.20 0.13 69 1007.8
20260831092433 16 319 12.9 25.7 0.00 0.20 0.13 71 1007.4
20260831091534 16 324 14.5 27.4 0.00 0.20 0.13 74 1007.3
20260831090633 15 348 14.5 30.6 0.00 0.20 0.13 76 1007.1
20260831085734 15 350 17.7 37.0 0.00 0.20 0.13 80 1006.8
20260831083934 15 311 14.5 25.7 0.00 0.20 0.13 82 1006.6
20260831083034 14 317 16.1 27.4 0.00 0.20 0.13 83 1006.8
20260831081233 14 296 16.1 30.6 0.00 0.20 0.13 84 1006.1
20260831080333 14 353 14.5 27.4 0.03 0.20 0.13 85 1006.3
20260831075434 13 325 12.9 27.4 0.03 0.20 0.13 85 1006.0
20260831074534 13 319 9.7 20.9 0.03 0.20 0.13 85 1005.7
20260831073633 14 329 12.9 22.5 0.03 0.20 0.13 85 1005.7
20260831072733 14 331 16.1 27.4 0.03 0.20 0.13 86 1005.4
20260831071834 14 284 12.9 24.1 0.03 0.20 0.13 86 1005.2
20260831070934 14 268 11.3 24.1 0.00 0.18 0.10 87 1005.4
20260831070034 15 309 9.7 17.7 0.00 0.18 0.10 89 1004.9
20260831065134 15 318 11.3 24.1 0.00 0.18 0.10 90 1004.9
20260831064233 14 311 11.3 17.7 0.00 0.18 0.10 90 1004.7
20260831063333 14 321 12.9 24.1 0.00 0.18 0.10 90 1004.5
20260831062435 14 302 12.9 24.1 0.00 0.18 0.10 90 1004.7
20260831061534 14 297 11.3 22.5 0.00 0.18 0.10 90 1004.4
20260831060634 14 311 11.3 19.3 0.03 0.18 0.10 91 1004.4
20260831055733 14 289 11.3 19.3 0.03 0.18 0.10 91 1004.4
20260831053034 14 286 12.9 25.7 0.03 0.18 0.10 91 1003.9